THORAD DELTA 1 DEB, 8184

Orbit data source: Space-Track

THORAD DELTA 1 DEB, 8184 is space debris in SSO originally from a launch on Fri, 15 Nov 1974 UTC launched from the Air Force Western Test Range (AFWTR). Debris objects in space refer to the collection of defunct objects orbiting the Earth. Examples of debris include non-operational satellites, rocket bodies, and fragments generated from explosions, collisions, or faulty payload assembly.

Loading next visibility...
Identifier
8184, 1974-089BA
Orbit
SSO
Country
Flag of USUS
Related business
Manufacturer
Unknown
Mission
Spacecraft
Bus & Motor
Unknown
Mass
Unknown
Launch date (UTC)
1974-11-15 (52 years ago)
Launch vehicle
Unknown
Launch site
Air Force Western Test Range (AFWTR)
Object type
Payload
Rocket body
Debris
Shape & HBR
Unknown shape, 0.6 m
Radar Cross Section
Medium (>0.1 m² and <1 m²)

Expand to show TLE details & history
Last TLE update: 10 hours ago

TLE from 10 hours ago
0 THORAD DELTA 1 DEB
1 08184U 74089BA  26207.35948191  .00000004  00000-0  31664-3 0  9993
2 08184 101.5438 166.8269 0064285  37.1645 116.8194 12.47612187353790
Epoch: 2026-07-26T08:37Z
TLE epoch observation values (Epoch: 2026-07-26T08:37:39.237Z)
Latitude
24.84047°
Longitude
-81.24623°
Altitude
1,500.247 km
Speed
7.106 km/s
True Right ascension
23h 28m 54s
True Declination
24° 43' 19"
Sunlit
Object was in daylight at epoch
Visualization orbit readout
Latitude
Unknown
Longitude
Unknown
Altitude
Unknown
Speed
Unknown
Apparent Right ascension
Unknown
Apparent Declination
Unknown
Sunlit
N/A
Visualization observer readout
Local Sidereal Time
08:14:57
Azimuth
Unknown
Elevation
Unknown
Doppler factor
Unknown
Orbital elements
Apogee altitude
1,522.501 km
Perigee altitude
1,421.571 km
Semi-major axis
7,850.173 km
Eccentricity
0.00643
Inclination
101.5438°
RAAN
166.8269°
Arg. of periapsis
37.1645°
True anomaly
117.47442°
Mean anomaly
116.8194°
Eccentric anomaly
117.14715°
Mean motion
3.1205 °/min
Orbital period
115.37 mins
BSTAR
0.00031664
Loading maneuver chart data...
Computing Atmospheric mass density...

Documentation

Showing up to 5 results
|